Weather observations for the past three days for
Starke County Airport
Imperial (Metric)
Date Time (cdt) Wind (mph) Vis. (mi.) Weather Sky Cond. Temperature (ºF) Relative Humidity Wind Chill (°F) Heat Index (°F) Pressure Precipitation (in)
Air Dwpt 6 hour altimeter (in) sea level (mb) 1 hr 3 hr 6 hr
Max. Min.
21 23:15 Calm 10.00 Fair CLR 62.6 59 88% 30.08 0.0
21 22:55 Calm 10.00 Fair CLR 62.6 59 88% 30.08 0.0
21 22:35 Calm 10.00 Fair CLR 62.6 59 88% 30.08 0.0
21 22:15 Calm 10.00 Fair CLR 62.6 59 88% 30.08 0.0
21 21:55 Calm 10.00 Fair CLR 62.6 59 88% 30.08 0.0
21 21:35 Calm 10.00 Fair CLR 64.4 60.8 88% 30.08 0.0
21 21:15 Calm 10.00 Fair CLR 64.4 60.8 88% 30.09 0.0
21 20:55 Calm 10.00 Fair CLR 66.2 60.8 83% 30.08 0.0
21 20:35 Calm 10.00 Fair CLR 68 62.6 83% 30.08 0.0
21 20:15 Calm 10.00 Fair CLR 68 64.4 88% 30.08 0.0
21 19:55 Calm 10.00 Fair CLR 71.6 59 65% 30.07 0.0
21 19:35 N 3 10.00 Fair CLR 73.4 59 61% 30.06 0.0
21 19:15 Calm 10.00 Fair CLR 77 50 39% 78 30.06 0.0
21 18:55 Calm 10.00 Fair CLR 77 53.6 44% 78 30.06 0.0
21 18:35 N 3 10.00 Fair CLR 77 51.8 42% 78 30.06 0.0
21 18:15 Calm 10.00 Fair CLR 78.8 51.8 39% 79 30.06 0.0
21 17:55 Calm 10.00 Fair CLR 78.8 50 37% 79 30.07 0.0
21 17:35 Calm 10.00 Fair CLR 78.8 50 37% 79 30.07 0.0
21 17:15 N 3 10.00 Fair CLR 78.8 48.2 34% 79 30.07 0.0
21 16:55 Calm 10.00 Fair CLR 78.8 50 37% 79 30.08 0.0
21 16:35 NE 6 10.00 Fair CLR 80.6 50 34% 80 30.08 0.0
21 16:15 N 3 10.00 Fair CLR 78.8 50 37% 79 30.08 0.0
21 15:55 Calm 10.00 Fair CLR 77 50 39% 78 30.08 0.0
21 15:35 E 3 10.00 Fair CLR 78.8 46.4 32% 79 30.1 0.0
21 15:15 Calm 10.00 Fair CLR 78.8 50 37% 79 30.1 0.0
21 14:55 Calm 10.00 Fair CLR 78.8 48.2 34% 79 30.1 0.0
21 14:35 Calm 10.00 Fair CLR 78.8 50 37% 79 30.11 0.0
21 14:15 N 3 10.00 Fair CLR 77 50 39% 78 30.12 0.0
21 13:55 N 3 10.00 Fair CLR 77 50 39% 78 30.12 0.0
21 13:35 Calm 10.00 Fair CLR 77 48.2 36% 78 30.12 0.0
21 13:15 Calm 10.00 Partly Cloudy SCT048 77 50 39% 78 30.12 0.0
21 12:55 NE 3 10.00 Partly Cloudy SCT050 78.8 50 37% 79 30.13 0.0
21 12:35 E 5 10.00 Partly Cloudy SCT042 SCT048 SCT050 78.8 50 37% 79 30.13 0.0
21 12:15 NE 3 10.00 Partly Cloudy SCT045 SCT050 78.8 48.2 34% 79 30.13 0.0
21 11:55 Calm 10.00 Fair CLR 77 51.8 42% 78 30.14 0.0
21 11:35 Calm 10.00 Fair CLR 77 51.8 42% 78 30.13 0.0
21 11:15 Calm 10.00 Fair CLR 75.2 51.8 44% 78 30.13 0.0
21 10:55 Calm 10.00 Fair CLR 73.4 51.8 47% 30.13 0.0
21 10:35 Calm 10.00 Fair CLR 73.4 51.8 47% 30.13 0.0
21 10:15 Calm 10.00 Fair CLR 73.4 53.6 50% 30.13 0.0
21 09:55 Calm 10.00 Partly Cloudy SCT050 71.6 55.4 57% 30.13 0.0
21 09:35 Calm 10.00 Fair CLR 69.8 55.4 60% 30.13 0.0
21 09:15 Calm 10.00 Fair CLR 69.8 55.4 60% 30.12 0.0
21 08:55 Calm 10.00 Fair CLR 69.8 57.2 64% 30.12 0.0
21 08:35 Calm 10.00 Fair CLR 68 60.8 78% 30.13 0.0
21 08:15 Calm 10.00 Fair CLR 68 60.8 78% 30.14 0.0
21 07:55 Calm 10.00 Fair CLR 64.4 59 83% 30.14 0.0
21 07:35 Calm 7.00 Fair CLR 62.6 59 88% 30.14 0.0
21 07:15 Calm 4.00 Fair CLR 60.8 55.4 83% 30.13 0.0
21 06:55 Calm 7.00 Fair CLR 59 53.6 82% 30.13 0.0
21 06:35 Calm 7.00 Fair CLR 57.2 53.6 88% 30.12 0.0
21 06:15 Calm 5.00 Fair CLR 55.4 51.8 88% 30.12 0.0
21 05:35 Calm 3.00 Fair CLR 55.4 51.8 88% 30.12 0.0
21 05:15 Calm 3.00 Fair CLR 55.4 51.8 88% 30.12 0.0
21 04:55 Calm 1.00 Sky Obscured VV007 55.4 51.8 88% 30.12 0.0
21 04:35 Calm 0.50 Sky Obscured VV005 55.4 51.8 88% 30.12 0.0
21 04:15 Calm 0.50 Sky Obscured VV005 55.4 51.8 88% 30.12 0.0
21 03:55 Calm 0.25 Sky Obscured VV002 55.4 51.8 88% 30.12 0.0
21 03:35 Calm 5.00 Fair CLR 57.2 51.8 82% 30.12 0.0
21 03:15 Calm 5.00 Fair CLR 57.2 53.6 88% 30.12 0.0
21 02:55 Calm 5.00 Fair CLR 57.2 53.6 88% 30.12 0.0
21 02:35 Calm 7.00 Fair CLR 59 53.6 82% 30.12 0.0
21 02:15 Calm 10.00 Fair CLR 59 53.6 82% 30.12 0.0
21 01:55 Calm 10.00 Fair CLR 59 53.6 82% 30.12 0.0
21 01:35 Calm 7.00 Fair CLR 59 53.6 82% 30.12 0.0
21 01:15 Calm 7.00 Fair CLR 59 53.6 82% 30.12 0.0
21 00:55 Calm 10.00 Fair CLR 59 53.6 82% 30.13 0.0
21 00:35 Calm 10.00 Fair CLR 59 53.6 82% 30.12 0.0
21 00:15 Calm 10.00 Fair CLR 59 53.6 82% 30.12 0.0
20 23:55 Calm 10.00 Fair CLR 59 53.6 82% 30.12 0.0
20 23:35 Calm 7.00 Fair CLR 59 55.4 88% 30.12 0.0
20 23:15 Calm 0.25 Sky Obscured VV002 59 55.4 88% 30.12 0.0
20 22:55 Calm 5.00 Fair CLR 59 55.4 88% 30.12 0.0
20 22:35 Calm 1.75 Sky Obscured VV007 60.8 55.4 83% 30.13 0.0
20 22:15 Calm 10.00 Fair CLR 60.8 55.4 83% 30.12 0.0
20 21:55 Calm 10.00 Fair CLR 60.8 55.4 83% 30.12 0.0
20 21:35 Calm 10.00 Fair CLR 60.8 57.2 88% 30.12 0.0
20 21:15 Calm 10.00 Fair CLR 62.6 59 88% 30.12 0.0
20 20:55 Calm 10.00 Fair CLR 62.6 59 88% 30.11 0.0
20 20:35 Calm 10.00 Fair CLR 64.4 60.8 88% 30.1 0.0
20 20:15 Calm 10.00 Fair CLR 64.4 60.8 88% 30.1 0.0
20 19:55 Calm 10.00 Fair CLR 68 62.6 83% 30.1 0.0
20 19:35 Calm 10.00 Fair CLR 69.8 60.8 73% 30.1 0.0
20 19:15 Calm 10.00 Fair CLR 71.6 57.2 61% 30.1 0.0
20 18:55 Calm 10.00 Fair CLR 73.4 53.6 50% 30.1 0.0
20 18:35 Calm 10.00 Fair CLR 75.2 48.2 39% 77 30.1 0.0
20 18:15 Calm 10.00 Fair CLR 77 48.2 36% 78 30.1 0.0
20 17:55 Calm 10.00 Fair CLR 77 50 39% 78 30.1 0.0
20 17:35 NW 3 10.00 Fair CLR 77 48.2 36% 78 30.1 0.0
20 17:15 NE 3 10.00 Fair CLR 77 48.2 36% 78 30.11 0.0
20 16:55 N 5 10.00 Fair CLR 77 50 39% 78 30.11 0.0
20 16:35 Calm 10.00 Fair CLR 77 50 39% 78 30.12 0.0
20 16:15 Calm 10.00 Partly Cloudy SCT050 75.2 46.4 36% 77 30.12 0.0
20 15:55 NE 3 10.00 Partly Cloudy SCT050 75.2 50 41% 78 30.12 0.0
20 15:35 N 5 10.00 Fair CLR 77 46.4 34% 78 30.12 0.0
20 15:15 NE 3 10.00 Fair CLR 77 46.4 34% 78 30.12 0.0
20 14:55 Calm 10.00 Fair CLR 77 46.4 34% 78 30.13 0.0
20 14:35 NE 3 10.00 Partly Cloudy SCT047 SCT055 77 46.4 34% 78 30.13 0.0
20 14:15 Calm 10.00 Mostly Cloudy SCT047 BKN055 77 46.4 34% 78 30.13 0.0
20 13:55 N 8 10.00 Mostly Cloudy BKN045 BKN050 77 50 39% 78 30.13 0.0
20 13:35 E 3 10.00 Partly Cloudy SCT049 77 48.2 36% 78 30.14 0.0
20 13:15 Calm 10.00 Partly Cloudy SCT049 77 46.4 34% 78 30.14 0.0
20 12:55 N 7 10.00 Partly Cloudy SCT046 SCT050 77 46.4 34% 78 30.14 0.0
20 12:35 Calm 10.00 Partly Cloudy SCT050 75.2 46.4 36% 77 30.15 0.0
20 12:15 Calm 10.00 Partly Cloudy SCT045 SCT060 77 48.2 36% 78 30.15 0.0
20 11:55 Calm 10.00 Partly Cloudy SCT047 SCT060 77 46.4 34% 78 30.15 0.0
20 11:35 Calm 10.00 Partly Cloudy SCT035 SCT043 SCT050 73.4 50 44% 30.15 0.0
20 11:15 Calm 10.00 Partly Cloudy SCT035 SCT042 SCT050 73.4 51.8 47% 30.16 0.0
20 10:55 Calm 10.00 Fair CLR 73.4 53.6 50% 30.17 0.0
20 10:35 Calm 10.00 Fair CLR 73.4 53.6 50% 30.17 0.0
20 10:15 Calm 10.00 Fair CLR 71.6 53.6 53% 30.16 0.0
20 09:55 Calm 10.00 Fair CLR 71.6 55.4 57% 30.16 0.0
20 09:35 Calm 10.00 Fair CLR 69.8 53.6 57% 30.16 0.0
20 09:15 Calm 10.00 Fair CLR 69.8 57.2 64% 30.16 0.0
20 08:55 Calm 10.00 Fair CLR 68 59 73% 30.16 0.0
20 08:35 Calm 10.00 Fair CLR 66.2 59 78% 30.16 0.0
20 08:15 Calm 10.00 Fair CLR 64.4 59 83% 30.16 0.0
20 07:55 Calm 10.00 Fair CLR 62.6 59 88% 30.15 0.0
20 07:35 Calm 10.00 Fair CLR 60.8 57.2 88% 30.15 0.0
20 07:15 Calm 10.00 Fair CLR 59 55.4 88% 30.15 0.0
20 06:55 Calm 10.00 Fair CLR 57.2 53.6 88% 30.14 0.0
20 06:35 Calm 10.00 Fair CLR 55.4 51.8 88% 30.13 0.0
20 06:15 Calm 4.00 Fair CLR 53.6 50 88% 30.13 0.0
20 05:55 Calm 5.00 Fair CLR 53.6 50 88% 30.13 0.0
20 05:35 Calm 7.00 Fair CLR 53.6 50 88% 30.13 0.0
20 05:15 Calm 10.00 Fair CLR 53.6 50 88% 30.13 0.0
20 04:35 Calm 10.00 Fair CLR 53.6 50 88% 30.12 0.0
20 04:15 Calm 10.00 Fair CLR 53.6 50 88% 30.12 0.0
20 03:55 Calm 10.00 Fair CLR 53.6 50 88% 30.12 0.0
20 03:35 Calm 10.00 Fair CLR 53.6 50 88% 30.13 0.0
20 03:15 Calm 5.00 Fair CLR 53.6 50 88% 30.13 0.0
20 02:55 Calm 1.25 Sky Obscured VV007 55.4 50 82% 30.13 0.0
20 02:35 Calm 0.75 Sky Obscured VV005 55.4 51.8 88% 30.14 0.0
20 02:15 Calm 7.00 Fair CLR 55.4 51.8 88% 30.14 0.0
20 01:55 Calm 10.00 Fair CLR 55.4 51.8 88% 30.14 0.0
20 01:35 Calm 10.00 Fair CLR 55.4 51.8 88% 30.14 0.0
20 01:15 Calm 10.00 Fair CLR 55.4 51.8 88% 30.14 0.0
20 00:55 Calm 10.00 Fair CLR 55.4 51.8 88% 30.14 0.0
20 00:35 Calm 10.00 Fair CLR 57.2 53.6 88% 30.14 0.0
20 00:15 Calm 10.00 Fair CLR 55.4 51.8 88% 30.14 0.0
19 23:55 Calm 10.00 Fair CLR 57.2 53.6 88% 30.14 0.0
19 23:35 Calm 10.00 Fair CLR 59 53.6 82% 30.15 0.0
19 23:15 Calm 10.00 Fair CLR 59 53.6 82% 30.15 0.0
19 22:55 Calm 10.00 Fair CLR 59 53.6 82% 30.14 0.0
19 22:35 Calm 10.00 Fair CLR 59 53.6 82% 30.14 0.0
19 22:15 Calm 10.00 Fair CLR 59 55.4 88% 30.14 0.0
19 21:55 Calm 10.00 Fair CLR 60.8 55.4 83% 30.14 0.0
19 21:35 Calm 10.00 Fair CLR 60.8 55.4 83% 30.14 0.0
19 21:15 Calm 10.00 Fair CLR 60.8 57.2 88% 30.14 0.0
19 20:55 Calm 7.00 Fair CLR 62.6 59 88% 30.14 0.0
19 20:35 Calm 10.00 Fair CLR 62.6 59 88% 30.14 0.0
19 20:15 NE 3 10.00 Fair CLR 64.4 53.6 68% 30.13 0.0
19 19:55 NE 3 10.00 Fair CLR 68 51.8 56% 30.13 0.0
19 19:15 N 3 10.00 Fair CLR 71.6 50 47% 30.14 0.0
19 18:55 N 5 10.00 Fair CLR 73.4 46.4 38% 30.14 0.0
19 18:35 N 5 10.00 Fair CLR 73.4 44.6 36% 30.14 0.0
19 18:15 NE 5 10.00 Fair CLR 73.4 42.8 33% 30.14 0.0
19 17:55 N 5 10.00 Fair CLR 75.2 42.8 31% 77 30.14 0.0
19 17:35 Calm 10.00 Fair CLR 75.2 44.6 34% 77 30.14 0.0
19 17:15 Calm 10.00 Fair CLR 75.2 42.8 31% 77 30.14 0.0
19 16:55 N 3 10.00 Fair CLR 75.2 44.6 34% 77 30.14 0.0
19 16:15 Calm 10.00 Fair CLR 75.2 42.8 31% 77 30.15 0.0
19 15:55 SW 3 10.00 Partly Cloudy SCT050 73.4 42.8 33% 30.16 0.0
19 15:35 N 5 10.00 Partly Cloudy SCT050 73.4 42.8 33% 30.16 0.0
19 15:15 NE 7 10.00 Fair CLR 75.2 44.6 34% 77 30.16 0.0
19 14:55 N 6 10.00 Fair CLR 75.2 44.6 34% 77 30.17 0.0
19 14:35 NE 5 10.00 Partly Cloudy SCT050 73.4 44.6 36% 30.17 0.0
19 14:15 Calm 10.00 Partly Cloudy SCT050 73.4 42.8 33% 30.18 0.0
19 13:55 Calm 10.00 Mostly Cloudy BKN050 73.4 44.6 36% 30.19 0.0
19 13:35 N 5 10.00 Partly Cloudy SCT050 73.4 44.6 36% 30.19 0.0
19 13:15 Calm 10.00 Partly Cloudy SCT050 73.4 42.8 33% 30.2 0.0
19 12:55 Calm 10.00 Fair CLR 73.4 42.8 33% 30.2 0.0
19 12:35 N 5 10.00 Fair CLR 73.4 42.8 33% 30.21 0.0
19 12:15 N 7 10.00 Fair CLR 73.4 44.6 36% 30.21 0.0
19 11:55 NE 3 10.00 Fair CLR 71.6 44.6 38% 30.21 0.0
19 11:35 NE 5 10.00 Fair CLR 71.6 44.6 38% 30.21 0.0
19 11:15 Calm 10.00 Fair CLR 71.6 44.6 38% 30.22 0.0
19 10:55 Calm 10.00 Fair CLR 71.6 44.6 38% 30.22 0.0
19 10:35 Calm 10.00 Fair CLR 69.8 46.4 43% 30.22 0.0
19 10:15 N 3 10.00 Fair CLR 69.8 50 50% 30.22 0.0
19 09:55 Calm 10.00 Fair CLR 69.8 51.8 53% 30.22 0.0
19 09:35 Calm 10.00 Fair CLR 68 53.6 60% 30.22 0.0
19 09:15 Calm 10.00 Fair CLR 66.2 53.6 64% 30.22 0.0
19 08:55 Calm 10.00 Fair CLR 64.4 53.6 68% 30.23 0.0
19 08:35 Calm 10.00 Fair CLR 62.6 51.8 68% 30.23 0.0
19 08:15 N 3 10.00 Fair CLR 60.8 55.4 83% 30.23 0.0
19 07:55 Calm 10.00 Fair CLR 60.8 55.4 83% 30.24 0.0
19 07:35 Calm 10.00 NULL NULL 59 53.6 82% 30.23 0.0
19 00:35 Calm 10.00 Fair CLR 53.6 50 88% 30.2 0.0
19 00:15 Calm 10.00 Fair CLR 53.6 50 88% 30.2 0.0
18 23:55 Calm 10.00 Fair CLR 53.6 50 88% 30.2 0.0
18 23:35 Calm 10.00 Fair CLR 53.6 50 88% 30.19 0.0
Date Time (cdt) Wind (mph) Vis. (mi.) Weather Sky Cond. Air Dwpt Max. Min. Relative Humidity Wind Chill (°F) Heat Index (°F) altimeter (in) sea level (mb) 1 hr 3 hr 6 hr
6 hour
Temperature (ºF) Pressure Precipitation (in)